| time (UTC) | temp F | wind direction | speed MPH | gust MPH | rain 1hr in | rain 24hr in | rain mn in | humidity % | barometer mb |
| 20260502203119 | 62 | 0.0 | 0.0 | 0.00 | 0.14 | 0.14 | 84 | 1022.2 | |
| 20260502202617 | 62 | 0.0 | 0.0 | 0.00 | 0.14 | 0.14 | 85 | 1022.2 | |
| 20260502202116 | 62 | 0.0 | 0.0 | 0.00 | 0.14 | 0.14 | 85 | 1022.0 | |
| 20260502201614 | 62 | 0.0 | 0.0 | 0.00 | 0.14 | 0.14 | 85 | 1021.7 | |
| 20260502201112 | 62 | 0.0 | 0.0 | 0.00 | 0.14 | 0.14 | 84 | 1021.7 | |
| 20260502200611 | 62 | 0.0 | 0.0 | 0.00 | 0.14 | 0.14 | 84 | 1021.6 | |
| 20260502200109 | 62 | 0.0 | 0.0 | 0.00 | 0.14 | 0.14 | 84 | 1021.6 | |
| 20260502195607 | 63 | 0.0 | 0.0 | 0.00 | 0.14 | 0.14 | 84 | 1021.4 | |
| 20260502195105 | 63 | 0.0 | 0.0 | 0.00 | 0.14 | 0.14 | 84 | 1021.5 | |
| 20260502194603 | 63 | 0.0 | 0.0 | 0.00 | 0.14 | 0.14 | 84 | 1021.2 | |
| 20260502194102 | 63 | 0.0 | 0.0 | 0.00 | 0.14 | 0.14 | 84 | 1021.1 | |
| 20260502193600 | 63 | 0.0 | 0.0 | 0.00 | 0.14 | 0.14 | 84 | 1020.7 | |
| 20260502193058 | 63 | 0.0 | 0.0 | 0.00 | 0.14 | 0.14 | 82 | 1020.7 | |
| 20260502192556 | 64 | 0.0 | 0.0 | 0.00 | 0.14 | 0.14 | 82 | 1020.4 | |
| 20260502192055 | 64 | 0.0 | 0.0 | 0.00 | 0.14 | 0.14 | 82 | 1020.4 | |
| 20260502191553 | 64 | 0.0 | 0.0 | 0.00 | 0.14 | 0.14 | 81 | 1020.5 | |
| 20260502191052 | 64 | 0.0 | 0.0 | 0.00 | 0.14 | 0.14 | 81 | 1020.3 | |
| 20260502190550 | 65 | 0.0 | 0.0 | 0.00 | 0.14 | 0.14 | 81 | 1020.4 | |
| 20260502190049 | 64 | 0.0 | 0.0 | 0.00 | 0.14 | 0.14 | 81 | 1020.6 | |
| 20260502185547 | 64 | 0.0 | 0.0 | 0.00 | 0.14 | 0.14 | 80 | 1020.4 | |
| 20260502185045 | 64 | 0.0 | 0.0 | 0.00 | 0.14 | 0.14 | 79 | 1020.5 | |
| 20260502184543 | 64 | 0.0 | 0.0 | 0.00 | 0.14 | 0.14 | 79 | 1020.3 | |
| 20260502184042 | 64 | 0.0 | 0.0 | 0.00 | 0.14 | 0.14 | 78 | 1020.5 | |
| 20260502183540 | 64 | 0.0 | 0.0 | 0.00 | 0.14 | 0.14 | 78 | 1020.5 | |
| 20260502183038 | 64 | 0.0 | 0.0 | 0.00 | 0.14 | 0.14 | 77 | 1020.7 | |
| 20260502182536 | 65 | 0.0 | 0.0 | 0.00 | 0.14 | 0.14 | 75 | 1020.3 | |
| 20260502182034 | 65 | 0.0 | 0.0 | 0.00 | 0.14 | 0.14 | 74 | 1020.3 | |
| 20260502181532 | 65 | 0.0 | 0.0 | 0.00 | 0.14 | 0.14 | 75 | 1020.2 | |
| 20260502181030 | 65 | 0.0 | 0.0 | 0.00 | 0.14 | 0.14 | 75 | 1020.2 | |
| 20260502180528 | 66 | 0.0 | 0.0 | 0.00 | 0.14 | 0.14 | 76 | 1020.4 | |
| 20260502170508 | 62 | 0.0 | 0.0 | 0.00 | 0.14 | 0.14 | 88 | 1020.2 | |
| 20260502163958 | 61 | 0.0 | 0.0 | 0.00 | 0.14 | 0.14 | 90 | 1020.5 | |
| 20260502163457 | 61 | 0.0 | 0.0 | 0.00 | 0.14 | 0.14 | 90 | 1020.5 | |
| 20260502162955 | 61 | 0.0 | 0.0 | 0.00 | 0.14 | 0.14 | 90 | 1020.5 | |
| 20260502162453 | 61 | 0.0 | 0.0 | 0.00 | 0.14 | 0.14 | 92 | 1020.4 | |
| 20260502161952 | 61 | 0.0 | 0.0 | 0.00 | 0.14 | 0.14 | 92 | 1020.7 | |
| 20260502161450 | 61 | 0.0 | 0.0 | 0.00 | 0.14 | 0.14 | 93 | 1020.6 | |
| 20260502160948 | 61 | 0.0 | 0.0 | 0.00 | 0.14 | 0.14 | 93 | 1020.7 | |
| 20260502160447 | 61 | 0.0 | 0.0 | 0.00 | 0.14 | 0.14 | 93 | 1020.9 | |
| 20260502151931 | 60 | 0.0 | 0.0 | 0.02 | 0.14 | 0.14 | 95 | 1022.4 | |
| 20260502151429 | 60 | 0.0 | 0.0 | 0.02 | 0.14 | 0.14 | 95 | 1022.6 | |
| 20260502150927 | 60 | 0.0 | 0.0 | 0.02 | 0.14 | 0.14 | 94 | 1022.6 | |
| 20260502150425 | 60 | 0.0 | 0.0 | 0.02 | 0.14 | 0.14 | 94 | 1022.8 | |
| 20260502130342 | 67 | 0.0 | 0.0 | 0.01 | 0.01 | 0.01 | 90 | 1023.3 | |
| 20260502123330 | 68 | 0.0 | 0.0 | 0.01 | 0.01 | 0.01 | 86 | 1022.6 | |
| 20260502122828 | 68 | 0.0 | 0.0 | 0.00 | 0.00 | 0.00 | 86 | 1022.6 | |
| 20260502122326 | 68 | 0.0 | 0.0 | 0.00 | 0.00 | 0.00 | 85 | 1022.6 | |
| 20260502121824 | 68 | 0.0 | 0.0 | 0.00 | 0.00 | 0.00 | 84 | 1022.5 | |
| 20260502121321 | 69 | 0.0 | 0.0 | 0.00 | 0.00 | 0.00 | 84 | 1022.4 | |
| 20260502120819 | 69 | 0.0 | 0.0 | 0.00 | 0.00 | 0.00 | 85 | 1022.3 | |
| 20260502120317 | 69 | 0.0 | 0.0 | 0.00 | 0.00 | 0.00 | 85 | 1022.2 | |
| 20260502115815 | 69 | 0.0 | 0.0 | 0.00 | 0.00 | 0.00 | 84 | 1022.2 | |
| 20260502115314 | 68 | 0.0 | 0.0 | 0.00 | 0.00 | 0.00 | 86 | 1022.1 | |
| 20260502114812 | 68 | 0.0 | 0.0 | 0.00 | 0.00 | 0.00 | 86 | 1022.0 | |
| 20260502114310 | 68 | 0.0 | 0.0 | 0.00 | 0.00 | 0.00 | 91 | 1021.8 | |
| 20260502113808 | 66 | 0.0 | 0.0 | 0.00 | 0.00 | 0.00 | 95 | 1021.7 | |
| 20260502113306 | 64 | 0.0 | 0.0 | 0.00 | 0.00 | 0.00 | 97 | 1021.6 | |
| 20260502112805 | 63 | 0.0 | 0.0 | 0.00 | 0.00 | 0.00 | 98 | 1021.6 | |
| 20260502112305 | 63 | 0.0 | 0.0 | 0.00 | 0.00 | 0.00 | 98 | 1021.5 | |
| 20260502111801 | 63 | 0.0 | 0.0 | 0.00 | 0.00 | 0.00 | 99 | 1021.4 | |
| 20260502111300 | 62 | 0.0 | 0.0 | 0.00 | 0.00 | 0.00 | 99 | 1021.3 | |
| 20260502110758 | 62 | 0.0 | 0.0 | 0.00 | 0.00 | 0.00 | 99 | 1021.1 | |
| 20260502110256 | 61 | 0.0 | 0.0 | 0.00 | 0.00 | 0.00 | 99 | 1020.9 | |
| 20260502105755 | 61 | 0.0 | 0.0 | 0.00 | 0.00 | 0.00 | 99 | 1020.9 | |
| 20260502105253 | 60 | 0.0 | 0.0 | 0.00 | 0.00 | 0.00 | 99 | 1020.8 | |
| 20260502104751 | 60 | 0.0 | 0.0 | 0.00 | 0.00 | 0.00 | 99 | 1020.7 | |
| 20260502104250 | 59 | 0.0 | 0.0 | 0.00 | 0.00 | 0.00 | 99 | 1020.6 | |
| 20260502103748 | 59 | 0.0 | 0.0 | 0.00 | 0.00 | 0.00 | 99 | 1020.5 | |
| 20260502103246 | 59 | 0.0 | 0.0 | 0.00 | 0.00 | 0.00 | 99 | 1020.3 | |
| 20260502102745 | 58 | 0.0 | 0.0 | 0.00 | 0.00 | 0.00 | 99 | 1020.3 | |
| 20260502102243 | 58 | 0.0 | 0.0 | 0.00 | 0.00 | 0.00 | 99 | 1020.2 | |
| 20260502101741 | 58 | 0.0 | 0.0 | 0.00 | 0.00 | 0.00 | 99 | 1020.1 | |
| 20260502101240 | 58 | 0.0 | 0.0 | 0.00 | 0.00 | 0.00 | 99 | 1020.1 | |
| 20260502100738 | 58 | 0.0 | 0.0 | 0.00 | 0.00 | 0.00 | 99 | 1020.0 | |
| 20260502100237 | 58 | 0.0 | 0.0 | 0.00 | 0.00 | 0.00 | 99 | 1019.9 | |
| 20260502091220 | 57 | 0.0 | 0.0 | 0.00 | 0.00 | 0.00 | 99 | 1019.2 | |
| 20260502090719 | 57 | 0.0 | 0.0 | 0.00 | 0.00 | 0.00 | 99 | 1019.1 | |
| 20260502090218 | 57 | 0.0 | 0.0 | 0.00 | 0.00 | 0.00 | 99 | 1019.1 | |
| 20260502071142 | 57 | 0.0 | 0.0 | 0.00 | 0.00 | 0.00 | 99 | 1018.6 | |
| 20260502070640 | 57 | 0.0 | 0.0 | 0.00 | 0.00 | 0.00 | 99 | 1018.5 | |
| 20260502070139 | 57 | 0.0 | 0.0 | 0.00 | 0.00 | 0.00 | 99 | 1018.5 | |
| 20260502065637 | 57 | 0.0 | 0.0 | 0.00 | 0.00 | 0.00 | 99 | 1018.6 | |
| 20260502065136 | 57 | 0.0 | 0.0 | 0.00 | 0.00 | 0.00 | 99 | 1018.7 | |
| 20260502064634 | 57 | 0.0 | 0.0 | 0.00 | 0.00 | 0.00 | 99 | 1018.7 | |
| 20260502064133 | 57 | 0.0 | 0.0 | 0.00 | 0.00 | 0.00 | 99 | 1018.7 | |
| 20260502063631 | 58 | 0.0 | 0.0 | 0.00 | 0.00 | 0.00 | 99 | 1018.8 | |
| 20260502063129 | 58 | 0.0 | 0.0 | 0.00 | 0.00 | 0.00 | 99 | 1018.9 | |
| 20260502062628 | 58 | 0.0 | 0.0 | 0.00 | 0.00 | 0.00 | 99 | 1018.9 | |
| 20260502062127 | 58 | 0.0 | 0.0 | 0.00 | 0.00 | 0.00 | 99 | 1018.8 | |
| 20260502061626 | 58 | 0.0 | 0.0 | 0.00 | 0.00 | 0.00 | 99 | 1018.6 | |
| 20260502061124 | 58 | 0.0 | 0.0 | 0.00 | 0.00 | 0.00 | 99 | 1018.6 | |
| 20260502060623 | 58 | 0.0 | 0.0 | 0.00 | 0.00 | 0.00 | 99 | 1018.6 | |
| 20260502060121 | 58 | 0.0 | 0.0 | 0.00 | 0.00 | 0.00 | 99 | 1018.6 | |
| 20260502055620 | 58 | 0.0 | 0.0 | 0.00 | 0.00 | 0.00 | 99 | 1018.6 | |
| 20260502055118 | 58 | 0.0 | 0.0 | 0.00 | 0.00 | 0.00 | 99 | 1018.5 | |
| 20260502054616 | 58 | 0.0 | 0.0 | 0.00 | 0.00 | 0.00 | 99 | 1018.6 | |
| 20260502054115 | 58 | 0.0 | 0.0 | 0.00 | 0.00 | 0.00 | 99 | 1018.7 | |
| 20260502053613 | 58 | 0.0 | 0.0 | 0.00 | 0.00 | 0.00 | 99 | 1018.6 | |
| 20260502053111 | 58 | 0.0 | 0.0 | 0.00 | 0.00 | 0.00 | 99 | 1018.7 | |
| 20260502052609 | 58 | 0.0 | 0.0 | 0.00 | 0.00 | 0.00 | 99 | 1018.8 | |
| 20260502052108 | 58 | 0.0 | 0.0 | 0.00 | 0.00 | 0.00 | 99 | 1018.9 | |
| 20260502051607 | 58 | 0.0 | 0.0 | 0.00 | 0.00 | 0.00 | 99 | 1019.0 | |
| 20260502051105 | 58 | 0.0 | 0.0 | 0.00 | 0.00 | 0.00 | 99 | 1019.1 | |
| 20260502050603 | 58 | 0.0 | 0.0 | 0.00 | 0.00 | 0.00 | 99 | 1019.2 | |
| 20260502050101 | 58 | 0.0 | 0.0 | 0.00 | 0.00 | 0.00 | 99 | 1019.2 | |
| 20260502045600 | 58 | 0.0 | 0.0 | 0.00 | 0.00 | 0.00 | 99 | 1019.3 | |
| 20260502045058 | 59 | 0.0 | 0.0 | 0.00 | 0.00 | 0.00 | 99 | 1019.3 | |
| 20260502044556 | 59 | 0.0 | 0.0 | 0.00 | 0.00 | 0.00 | 99 | 1019.4 | |
| 20260502044055 | 59 | 0.0 | 0.0 | 0.00 | 0.00 | 0.00 | 99 | 1019.5 | |
| 20260502043553 | 60 | 0.0 | 0.0 | 0.00 | 0.00 | 0.00 | 99 | 1019.6 | |
| 20260502043052 | 60 | 0.0 | 0.0 | 0.00 | 0.00 | 0.00 | 99 | 1019.6 | |
| 20260502042550 | 60 | 0.0 | 0.0 | 0.00 | 0.00 | 0.00 | 99 | 1019.6 | |
| 20260502042048 | 60 | 0.0 | 0.0 | 0.00 | 0.00 | 0.00 | 99 | 1019.5 | |
| 20260502041546 | 60 | 0.0 | 0.0 | 0.00 | 0.00 | 0.00 | 99 | 1019.4 | |
| 20260502041044 | 60 | 0.0 | 0.0 | 0.00 | 0.00 | 0.00 | 99 | 1019.4 | |
| 20260502040543 | 60 | 0.0 | 0.0 | 0.00 | 0.00 | 0.00 | 99 | 1019.4 | |
| 20260502040041 | 60 | 0.0 | 0.0 | 0.00 | 0.00 | 0.00 | 99 | 1019.3 | |
| 20260502035540 | 60 | 0.0 | 0.0 | 0.00 | 0.00 | 0.00 | 99 | 1019.4 | |
| 20260502035038 | 60 | 0.0 | 0.0 | 0.00 | 0.00 | 0.00 | 99 | 1019.3 | |
| 20260502034536 | 60 | 0.0 | 0.0 | 0.00 | 0.00 | 0.00 | 99 | 1019.4 | |
| 20260502034035 | 60 | 0.0 | 0.0 | 0.00 | 0.00 | 0.00 | 99 | 1019.4 | |
| 20260502033533 | 61 | 0.0 | 0.0 | 0.00 | 0.00 | 0.00 | 99 | 1019.3 | |
| 20260502033031 | 61 | 0.0 | 0.0 | 0.00 | 0.00 | 0.00 | 99 | 1019.4 | |
| 20260502032530 | 61 | 0.0 | 0.0 | 0.00 | 0.00 | 0.00 | 99 | 1019.4 | |
| 20260502032029 | 61 | 0.0 | 0.0 | 0.00 | 0.00 | 0.00 | 98 | 1019.5 | |
| 20260502031527 | 61 | 0.0 | 0.0 | 0.00 | 0.00 | 0.00 | 98 | 1019.5 | |
| 20260502031026 | 61 | 0.0 | 0.0 | 0.00 | 0.00 | 0.00 | 98 | 1019.6 | |
| 20260502030524 | 62 | 0.0 | 0.0 | 0.00 | 0.00 | 0.00 | 98 | 1019.7 | |
| 20260502030022 | 62 | 0.0 | 0.0 | 0.00 | 0.00 | 0.00 | 98 | 1019.7 | |
| 20260502025520 | 62 | 0.0 | 0.0 | 0.00 | 0.00 | 0.00 | 98 | 1019.7 | |
| 20260502025019 | 62 | 0.0 | 0.0 | 0.00 | 0.00 | 0.00 | 98 | 1019.8 | |
| 20260502024517 | 62 | 0.0 | 0.0 | 0.00 | 0.00 | 0.00 | 98 | 1019.8 | |
| 20260502024015 | 62 | 0.0 | 0.0 | 0.00 | 0.00 | 0.00 | 98 | 1019.9 | |
| 20260502023513 | 62 | 0.0 | 0.0 | 0.00 | 0.00 | 0.00 | 98 | 1019.9 | |
| 20260502023011 | 62 | 0.0 | 0.0 | 0.00 | 0.00 | 0.00 | 98 | 1019.9 | |
| 20260502022510 | 62 | 0.0 | 0.0 | 0.00 | 0.00 | 0.00 | 98 | 1019.9 | |
| 20260502022008 | 62 | 0.0 | 0.0 | 0.00 | 0.00 | 0.00 | 98 | 1019.9 | |
| 20260502021506 | 63 | 0.0 | 0.0 | 0.00 | 0.00 | 0.00 | 98 | 1019.8 | |
| 20260502021005 | 62 | 0.0 | 0.0 | 0.00 | 0.00 | 0.00 | 98 | 1019.8 | |
| 20260502020503 | 62 | 0.0 | 0.0 | 0.00 | 0.00 | 0.00 | 98 | 1019.8 | |
| 20260502020001 | 63 | 0.0 | 0.0 | 0.00 | 0.00 | 0.00 | 98 | 1019.8 | |
| 20260502015459 | 63 | 0.0 | 0.0 | 0.00 | 0.00 | 0.00 | 98 | 1019.9 | |
| 20260502014958 | 63 | 0.0 | 0.0 | 0.00 | 0.00 | 0.00 | 97 | 1019.8 | |
| 20260502014455 | 63 | 0.0 | 0.0 | 0.00 | 0.00 | 0.00 | 97 | 1019.7 | |
| 20260502013954 | 63 | 0.0 | 0.0 | 0.00 | 0.00 | 0.00 | 97 | 1019.7 | |
| 20260502013452 | 63 | 0.0 | 0.0 | 0.00 | 0.00 | 0.00 | 97 | 1019.8 | |
| 20260502012950 | 63 | 0.0 | 0.0 | 0.00 | 0.00 | 0.00 | 97 | 1019.7 | |
| 20260502012447 | 63 | 0.0 | 0.0 | 0.00 | 0.00 | 0.00 | 97 | 1019.8 | |
| 20260502011945 | 63 | 0.0 | 0.0 | 0.00 | 0.00 | 0.00 | 97 | 1019.8 | |
| 20260502011444 | 63 | 0.0 | 0.0 | 0.00 | 0.00 | 0.00 | 97 | 1019.8 | |
| 20260502010941 | 63 | 0.0 | 0.0 | 0.00 | 0.00 | 0.00 | 97 | 1019.9 | |
| 20260502010439 | 63 | 0.0 | 0.0 | 0.00 | 0.00 | 0.00 | 97 | 1019.9 | |
| 20260502005937 | 63 | 0.0 | 0.0 | 0.00 | 0.00 | 0.00 | 97 | 1019.9 | |
| 20260502005435 | 63 | 0.0 | 0.0 | 0.00 | 0.00 | 0.00 | 96 | 1019.9 | |
| 20260502004933 | 63 | 0.0 | 0.0 | 0.00 | 0.00 | 0.00 | 96 | 1019.9 | |
| 20260502004431 | 63 | 0.0 | 0.0 | 0.00 | 0.00 | 0.00 | 96 | 1019.9 | |
| 20260502003929 | 63 | 0.0 | 0.0 | 0.00 | 0.00 | 0.00 | 96 | 1020.0 | |
| 20260502003427 | 63 | 0.0 | 0.0 | 0.00 | 0.00 | 0.00 | 96 | 1020.0 | |
| 20260502002924 | 63 | 0.0 | 0.0 | 0.00 | 0.00 | 0.00 | 96 | 1020.1 | |
| 20260502002422 | 63 | 0.0 | 0.0 | 0.00 | 0.00 | 0.00 | 95 | 1020.2 | |
| 20260502001920 | 63 | 0.0 | 0.0 | 0.00 | 0.00 | 0.00 | 95 | 1020.2 | |
| 20260502001417 | 63 | 0.0 | 0.0 | 0.00 | 0.00 | 0.00 | 95 | 1020.2 | |
| 20260502000915 | 63 | 0.0 | 0.0 | 0.00 | 0.00 | 0.00 | 94 | 1020.3 | |
| 20260502000413 | 63 | 0.0 | 0.0 | 0.00 | 0.00 | 0.00 | 94 | 1020.3 | |
| 20260501235912 | 63 | 0.0 | 0.0 | 0.00 | 0.00 | 0.00 | 94 | 1020.3 | |
| 20260501235409 | 63 | 0.0 | 0.0 | 0.00 | 0.00 | 0.00 | 93 | 1020.3 | |
| 20260501234907 | 64 | 0.0 | 0.0 | 0.00 | 0.00 | 0.00 | 93 | 1020.4 | |
| 20260501234405 | 64 | 0.0 | 0.0 | 0.00 | 0.00 | 0.00 | 93 | 1020.3 | |
| 20260501233903 | 64 | 0.0 | 0.0 | 0.00 | 0.00 | 0.00 | 93 | 1020.4 | |
| 20260501233401 | 64 | 0.0 | 0.0 | 0.00 | 0.00 | 0.00 | 93 | 1020.3 | |
| 20260501232859 | 64 | 0.0 | 0.0 | 0.00 | 0.00 | 0.00 | 93 | 1020.3 | |
| 20260501232358 | 64 | 0.0 | 0.0 | 0.00 | 0.00 | 0.00 | 92 | 1020.3 | |
| 20260501231855 | 64 | 0.0 | 0.0 | 0.00 | 0.00 | 0.00 | 92 | 1020.3 | |
| 20260501231353 | 64 | 0.0 | 0.0 | 0.00 | 0.00 | 0.00 | 92 | 1020.3 | |
| 20260501230851 | 64 | 0.0 | 0.0 | 0.00 | 0.00 | 0.00 | 91 | 1020.3 | |
| 20260501230350 | 64 | 0.0 | 0.0 | 0.00 | 0.00 | 0.00 | 91 | 1020.4 | |
| 20260501225848 | 64 | 0.0 | 0.0 | 0.00 | 0.00 | 0.00 | 91 | 1020.3 | |
| 20260501225346 | 64 | 0.0 | 0.0 | 0.00 | 0.00 | 0.00 | 90 | 1020.3 | |
| 20260501224844 | 64 | 0.0 | 0.0 | 0.00 | 0.00 | 0.00 | 90 | 1020.2 | |
| 20260501224343 | 64 | 0.0 | 0.0 | 0.00 | 0.00 | 0.00 | 90 | 1020.2 | |
| 20260501223841 | 64 | 0.0 | 0.0 | 0.00 | 0.00 | 0.00 | 89 | 1020.2 | |
| 20260501223339 | 64 | 0.0 | 0.0 | 0.00 | 0.00 | 0.00 | 89 | 1020.1 | |
| 20260501222837 | 65 | 0.0 | 0.0 | 0.00 | 0.00 | 0.00 | 88 | 1020.1 | |
| 20260501222335 | 65 | 0.0 | 0.0 | 0.00 | 0.00 | 0.00 | 88 | 1020.0 | |
| 20260501221833 | 65 | 0.0 | 0.0 | 0.00 | 0.00 | 0.00 | 88 | 1020.0 | |
| 20260501221331 | 65 | 0.0 | 0.0 | 0.00 | 0.00 | 0.00 | 87 | 1019.9 | |
| 20260501220829 | 66 | 0.0 | 0.0 | 0.00 | 0.00 | 0.00 | 87 | 1019.9 | |
| 20260501220328 | 66 | 0.0 | 0.0 | 0.00 | 0.00 | 0.00 | 86 | 1019.9 | |
| 20260501215826 | 66 | 0.0 | 0.0 | 0.00 | 0.00 | 0.00 | 86 | 1019.9 | |
| 20260501215324 | 66 | 0.0 | 0.0 | 0.00 | 0.00 | 0.00 | 86 | 1019.9 | |
| 20260501214822 | 66 | 0.0 | 0.0 | 0.00 | 0.00 | 0.00 | 85 | 1019.9 | |
| 20260501214320 | 66 | 0.0 | 0.0 | 0.00 | 0.00 | 0.00 | 84 | 1019.8 | |
| 20260501213818 | 67 | 0.0 | 0.0 | 0.00 | 0.00 | 0.00 | 83 | 1019.8 | |
| 20260501213316 | 67 | 0.0 | 0.0 | 0.00 | 0.00 | 0.00 | 81 | 1019.7 | |
| 20260501212814 | 67 | 0.0 | 0.0 | 0.00 | 0.00 | 0.00 | 80 | 1019.7 | |
| 20260501212313 | 68 | 0.0 | 0.0 | 0.00 | 0.00 | 0.00 | 79 | 1019.6 | |
| 20260501211811 | 68 | 0.0 | 0.0 | 0.00 | 0.00 | 0.00 | 77 | 1019.7 | |
| 20260501211309 | 68 | 0.0 | 0.0 | 0.00 | 0.00 | 0.00 | 75 | 1019.7 | |
| 20260501210807 | 69 | 0.0 | 0.0 | 0.00 | 0.00 | 0.00 | 74 | 1019.6 | |
| 20260501210305 | 69 | 0.0 | 0.0 | 0.00 | 0.00 | 0.00 | 72 | 1019.6 | |
| 20260501205803 | 70 | 0.0 | 0.0 | 0.00 | 0.00 | 0.00 | 70 | 1019.5 | |
| 20260501205305 | 71 | 0.0 | 0.0 | 0.00 | 0.00 | 0.00 | 69 | 1019.5 | |
| 20260501204800 | 71 | 0.0 | 0.0 | 0.00 | 0.00 | 0.00 | 68 | 1019.5 | |
| 20260501204259 | 71 | 0.0 | 0.0 | 0.00 | 0.00 | 0.00 | 67 | 1019.5 | |
| 20260501203757 | 71 | 0.0 | 0.0 | 0.00 | 0.00 | 0.00 | 67 | 1019.5 |